Takotna, AK

7:58 PM AKST on February 10, 2016 (GMT -0900)
Tatalina

Weather History for PATL - May, 2014

Change the Weather History Date:

Friday, May 2, 2014

  Actual Average Record
Temperature  
Mean Temperature 57 °F -  
Max Temperature 68 °F 43 °F 68 °F (2014)
Min Temperature 47 °F 30 °F 10 °F (2001)
Degree Days  
Heating Degree Days 8    
Growing Degree Days 7 (Base 50)    
Moisture  
Dew Point 30 °F    
Average Humidity 34    
Maximum Humidity 51    
Minimum Humidity 24    
Precipitation  
Precipitation 0.00 in - - ()
Sea Level Pressure  
Sea Level Pressure 30.30 in    
Wind  
Wind Speed 4 mph (East)    
Max Wind Speed 9 mph    
Max Gust Speed 17 mph    
Visibility 10 miles    
Events      
Averages and records for this station are not official NWS values.
T = Trace of Precipitation, MM = Missing Value Source: NWS Daily Summary

Daily Weather History Graph

Daily Weather History Graph

Search for Another Location

Airport or City:

Trip Planner

Search our weather history database for the weather conditions in past years. The results will help you decide how hot, cold, wet, or windy it might be!

Date:

Astronomy

May. 02, 2014 Rise Set
Actual Time 6:00 AM AKDT 10:42 PM AKDT
Civil Twilight 4:56 AM AKDT 11:48 PM AKDT
Nautical Twilight 2:53 AM AKDT 1:48 AM AKDT
Astronomical Twilight Sun does not rise Sun does not rise
Moon 8:24 AM AKDT (5/2) 1:46 AM AKDT (5/2)
Length of Visible Light 18h 51m
Length of Day
16h 42m
Waxing Crescent, 13% of the Moon is Illuminated
May 2
Waxing Crescent
May 6
First Quarter
May 14
Full
May 21
Last Quarter
May 28
New

Hourly Weather History & Observations

Time (AKDT) Temp. Dew Point Humidity Pressure Visibility Wind Dir Wind Speed Gust Speed Precip Events Conditions
12:55 AM 57.4 °F 28.9 °F 34% 30.45 in 10.0 mi South 2.3 mph - N/A   Clear
1:55 AM 56.3 °F 29.3 °F 36% 30.44 in 10.0 mi Variable 1.2 mph - N/A   Clear
2:55 AM 54.9 °F 29.5 °F 38% 30.43 in 10.0 mi East 3.5 mph - N/A   Clear
3:55 AM 51.6 °F 29.8 °F 43% 30.43 in 10.0 mi SE 2.3 mph - N/A   Clear
4:55 AM 47.5 °F 30.2 °F 51% 30.42 in 10.0 mi ESE 3.5 mph - N/A   Clear
5:55 AM 47.8 °F 29.8 °F 50% 30.40 in 10.0 mi Variable 3.5 mph - N/A   Clear
6:55 AM 48.9 °F 29.5 °F 47% 30.40 in 10.0 mi ESE 3.5 mph - N/A   Clear
7:55 AM 50.5 °F 29.8 °F 45% 30.39 in 10.0 mi SE 3.5 mph - N/A   Clear
8:55 AM 51.3 °F 31.1 °F 46% 30.38 in 10.0 mi Variable 4.6 mph - N/A   Clear
9:55 AM 54.1 °F 32.0 °F 43% 30.36 in 10.0 mi ESE 4.6 mph - N/A   Clear
10:55 AM 58.3 °F 32.7 °F 38% 30.34 in 10.0 mi Variable 5.8 mph - N/A   Clear
11:55 AM 61.9 °F 29.7 °F 30% 30.32 in 10.0 mi Variable 5.8 mph - N/A   Clear
12:55 PM 63.5 °F 30.2 °F 29% 30.29 in 10.0 mi ENE 9.2 mph 17.3 mph N/A   Clear
1:55 PM 65.3 °F 31.5 °F 28% 30.27 in 10.0 mi ENE 9.2 mph 15.0 mph N/A   Clear
2:55 PM 66.2 °F 30.0 °F 26% 30.25 in 10.0 mi NE 4.6 mph - N/A   Clear
3:55 PM 67.1 °F 31.1 °F 26% 30.23 in 10.0 mi Variable 6.9 mph - N/A   Clear
4:55 PM 67.5 °F 31.5 °F 26% 30.21 in 10.0 mi NNE 9.2 mph 16.1 mph N/A   Clear
5:55 PM 67.5 °F 30.4 °F 25% 30.20 in 10.0 mi Variable 6.9 mph - N/A   Clear
6:55 PM 67.5 °F 30.2 °F 25% 30.18 in 10.0 mi ENE 5.8 mph 15.0 mph N/A   Clear
7:55 PM 66.9 °F 29.1 °F 24% 30.17 in 10.0 mi NE 6.9 mph - N/A   Clear
8:55 PM 65.8 °F 28.6 °F 25% 30.16 in 10.0 mi NE 4.6 mph - N/A   Clear
9:55 PM 63.7 °F 27.1 °F 25% 30.16 in 10.0 mi Variable 3.5 mph - N/A   Clear
10:55 PM 62.2 °F 25.9 °F 25% 30.15 in 10.0 mi NNE 5.8 mph - N/A   Clear
11:55 PM 61.2 °F 25.3 °F 26% 30.15 in 10.0 mi NE 2.3 mph - N/A   Clear